Voltar ao catálogo

SATCOM 3 DEB

LostHEO
NORAD 49959·DEBRIS·🇺🇸 United States

Lançado Dec 7, 1979 de Cape Canaveral Space Force Station

Loading…

Próximas Passagens (próximas 24 horas)

TLE

ObsoletoSource: Space-Track

Época: Apr 1, 2026, 11:27 UTC

1 49959U 79101AD  26091.47745580 -.00000104  00000-0  00000-0 0  9998
2 49959   7.2251 129.0927 4758063  25.3419  16.3023  1.80715817 81688

Acompanhe SATCOM 3 DEB em tempo real com AllMySat

Download on the App Store